Regional Weather Roundup
Issued by NWS Glasgow, MT

Home | Current Version | Previous Version | Text Only | Print | Product List | Glossary On
Versions: 1 2 3 4 5 6 7 8 9 10 11 12 13 14 15 16 17 18 19 20 21 22 23 24 25 26 27 28 29 30 31 32 33 34 35 36 37 38 39 40 41 42 43 44 45 46 47 48 49 50
000
ASUS45 KGGW 250615
RWRGGW
HOURLY WEATHER ROUNDUP FOR NORTHEAST MONTANA
NATIONAL WEATHER SERVICE GLASGOW MONTANA
1200 AM MDT FRI JUL 25 2014

NOTE: "FAIR" INDICATES FEW OR NO CLOUDS BELOW 12,000 FEET WITH NO
SIGNIFICANT WEATHER AND/OR OBSTRUCTIONS TO VISISBILITY.

NORTHEAST MONTANA


CITY           SKY/WX    TMP DP  RH WIND       PRES   REMARKS
GLASGOW        CLEAR     56  40  55 S3        29.88R
6HR MIN TEMP:  56; 6HR MAX TEMP:  75;

PLENTYWOOD       N/A     55  52  89 NW3         N/A
WOLF POINT     CLEAR     53  50  89 NW6       29.87R
JORDAN           N/A     53  40  61 W3        29.91R
WINNETT          N/A     63  30  28 NW9         N/A
SIDNEY         PTCLDY    61  52  72 NW9       29.86R
GLENDIVE       CLEAR     63  46  55 N10       29.90R
MALTA            N/A     57  39  51 W5          N/A
SCOBEY           N/A     53  46  77 CALM      29.85R

FORT PECK REPORTS


CITY           SKY/WX    TMP DP  RH WIND       PRES   REMARKS
FORT PECK        N/A     62  47  57 SE3         N/A
THE PINES        N/A     65  33  30 NW6G14      N/A

SOUTHEAST MONTANA


CITY           SKY/WX    TMP DP  RH WIND       PRES   REMARKS
BILLINGS       CLEAR     68  35  29 NE5       29.98R
MILES CITY     CLEAR     63  54  72 E6        29.93R
BAKER          CLEAR     62  48  60 W7        29.90R
LIVINGSTON     CLEAR     63  29  27 VRB7      30.04R

CENTRAL MONTANA


CITY           SKY/WX    TMP DP  RH WIND       PRES   REMARKS
HAVRE          CLEAR     56  37  49 SW15      29.86S
LEWISTOWN      CLEAR     53  35  50 W8        29.98S
GREAT FALLS    CLEAR     58  33  39 SW14      29.99R
CUT BANK       CLEAR     55  37  50 SW23G33   29.93S
HELENA         CLEAR     60  35  39 W18       30.06S
BUTTE          CLEAR     54  32  43 N7        30.14F
BOZEMAN        CLEAR     54  32  43 NW7       30.08R

WESTERN MONTANA


CITY           SKY/WX    TMP DP  RH WIND       PRES   REMARKS
MISSOULA       CLEAR     53  37  54 CALM      30.14S
KALISPELL      NOT AVBL

NORTH DAKOTA


CITY           SKY/WX    TMP DP  RH WIND       PRES   REMARKS
WILLISTON      PTCLDY    60  56  86 NW7       29.83R
DICKINSON      CLEAR     66  63  90 NW14      29.78R
MINOT          CLOUDY    69  66  90 SW7       29.80R
BISMARCK       CLOUDY    68  65  90 E9        29.66F

SOUTHERN SASKATCHEWAN


CITY           SKY/WX    TMP DP  RH WIND       PRES   REMARKS
REGINA         PTCLDY    54  54 100 SW9       29.77S
ESTEVAN        MOCLDY    63  61  94 NW7       29.78
SWIFT CURRENT  PTCLDY    54  43  66 SW12G17   29.75R



USA.gov is the U.S. government's official web portal to all federal, state and local government web resources and services.